Terminal Aerodrome Forecast
Issued by NWS

Home | Current Version | Previous Version | Text Only | Print | Product List | Glossary On
Versions: 1 2 3 4 5 6 7 8 9 10 11 12 13 14 15 16 17
000
FTUS43 KGRR 211100 RRA
TAFLAN
TAF
KLAN 211142Z 2112/2212 35011KT P6SM VCSH OVC015
      TEMPO 2112/2114 OVC009
     FM211800 01010KT P6SM BKN025
     FM220100 02006KT P6SM BKN030
     FM220600 02004KT P6SM SCT030=

USA.gov is the U.S. government's official web portal to all federal, state and local government web resources and services.